Overview Statistics Trail Chart Weather Telemetry Raw packets
 

This is the latest recevied weather packets stored in our database for station/object SP9MUF-14. If no packets are shown the sender has not sent any weather packets the latest 10 day(s).

<< 41 42 43 44 45 46 47 >>
Time Temp. Humidity Pressure Rain* Wind** Luminosity Snow
1787914516 26.67° C 40% 1016.6 hPa 0 mm - 586 W/m² -
1787914212 26.67° C 39% 1016.7 hPa 0 mm - 599 W/m² -
1787913909 26.67° C 40% 1016.8 hPa 0 mm - 640 W/m² -
1787913002 25.56° C 42% 1016.9 hPa 0 mm - 617 W/m² -
1787912700 25.56° C 44% 1016.9 hPa 0 mm - 610 W/m² -
1787912398 25.56° C 43% 1017 hPa 0 mm - 597 W/m² -
1787912096 25.56° C 42% 1017.1 hPa 0 mm - 638 W/m² -
1787911794 25.56° C 43% 1017.3 hPa 0 mm - 635 W/m² -
1787911189 25.56° C 43% 1017.5 hPa 0 mm - 621 W/m² -
1787910887 25° C 44% 1017.5 hPa 0 mm - 616 W/m² -
1787910585 25° C 45% 1017.5 hPa 0 mm - 608 W/m² -
1787909980 25° C 46% 1017.5 hPa 0 mm - 609 W/m² -
1787909375 23.89° C 46% 1017.5 hPa 0 mm - 598 W/m² -
1787909073 23.89° C 46% 1017.6 hPa 0 mm - 598 W/m² -
1787908779 23.89° C 45% 1015 hPa 0 mm - 589 W/m² -
1787908469 23.89° C 47% 1017.9 hPa 0 mm - 584 W/m² -
1787908166 23.89° C 48% 1018 hPa 0 mm - 581 W/m² -
1787907864 23.89° C 46% 1018.1 hPa 0 mm - 572 W/m² -
1787907562 22.78° C 47% 1018.1 hPa 0 mm - 570 W/m² -
1787907260 22.78° C 48% 1018.1 hPa 0 mm - 563 W/m² -
1787906655 22.78° C 49% 1018.2 hPa 0 mm - 547 W/m² -
1787906353 21.67° C 51% 1018.4 hPa 0 mm - 541 W/m² -
1787906051 21.67° C 54% 1018.4 hPa 0 mm - 532 W/m² -
1787905749 21.67° C 52% 1018.5 hPa 0 mm - 525 W/m² -
1787905446 21.67° C 54% 1018.6 hPa 0 mm - 515 W/m² -

* Rain latest hour (hover to see other rain measurements)
** Current wind speed in m/s (hover to see current wind gust speed)